Weather History for Ft Pierce, FL

Change the Weather History Date:

Wednesday, September 5, 2012

  Actual Average Record
Temperature  
Mean Temperature 80 °F -  
Max Temperature 90 °F 89 °F 95 °F (2011)
Min Temperature 71 °F 72 °F 67 °F (1957)
Cooling Degree Days 15    
Growing Degree Days 30 (Base 50)    
Moisture  
Dew Point 71 °F    
Average Humidity 83    
Maximum Humidity 96    
Minimum Humidity 53    
Precipitation  
Precipitation 0.07 in - - ()
Sea Level Pressure  
Sea Level Pressure 29.99 in    
Wind  
Wind Speed 4 mph (South)    
Max Wind Speed 14 mph    
Max Gust Speed -    
Visibility 10 miles    
Events Rain , Thunderstorm    
Averages and records for this station are not official NWS values.
T = Trace of Precipitation, MM = Missing Value Source: NWS Daily Summary

Daily Weather History Graph

Daily Weather History Graph

Search for Another Location

Airport:

Trip Planner

Search our weather history database for the weather conditions in past years. The results will help you decide how hot, cold, wet, or windy it might be!

Date:

Astronomy

Sep. 05, 2012 Rise Set
Actual Time 7:02 AM EDT 7:37 PM EDT
Civil Twilight 6:38 AM EDT 8:00 PM EDT
Nautical Twilight 6:11 AM EDT 8:28 PM EDT
Astronomical Twilight 5:43 AM EDT 8:56 PM EDT
Moon 10:39 PM EDT (9/5) 11:32 AM EDT (9/5)
Length of Visible Light 13h 21m
Length of Day
12h 34m
Waning Gibbous, 76% of the Moon is Illuminated
Sep 5
Waning Gibbous
Sep 8
Last Quarter
Sep 15
New
Sep 22
First Quarter
Sep 29
Full

Hourly Weather History & Observations

Time (EDT) Temp. Heat Index Dew Point Humidity Pressure Visibility Wind Dir Wind Speed Gust Speed Precip Events Conditions
12:53 AM 72.0 °F - 70.0 °F 93% 30.01 in 10.0 mi Calm Calm - N/A   Clear
1:53 AM 71.1 °F - 70.0 °F 96% 29.99 in 10.0 mi Calm Calm - N/A   Partly Cloudy
2:53 AM 72.0 °F - 70.0 °F 93% 29.99 in 10.0 mi ESE 3.5 mph - N/A   Clear
3:53 AM 73.0 °F - 69.1 °F 87% 29.97 in 10.0 mi South 3.5 mph - N/A   Scattered Clouds
4:53 AM 73.0 °F - 71.1 °F 93% 29.97 in 10.0 mi SSE 3.5 mph - N/A   Clear
5:53 AM 73.9 °F - 71.1 °F 91% 29.97 in 10.0 mi SSE 5.8 mph - N/A   Scattered Clouds
6:03 AM 73.4 °F - 71.6 °F 94% 29.98 in 10.0 mi SSE 4.6 mph - N/A   Mostly Cloudy
6:23 AM 75.2 °F - 71.6 °F 89% 29.99 in 10.0 mi Calm Calm - N/A   Scattered Clouds
6:53 AM 73.9 °F - 72.0 °F 93% 29.99 in 10.0 mi Calm Calm - N/A   Clear
7:53 AM 75.0 °F - 73.0 °F 94% 29.99 in 10.0 mi SSE 4.6 mph - N/A   Clear
8:53 AM 78.1 °F - 73.9 °F 87% 30.00 in 10.0 mi South 6.9 mph - N/A   Clear
9:53 AM 81.0 °F 85.8 °F 73.0 °F 77% 30.01 in 10.0 mi South 9.2 mph - N/A   Clear
10:53 AM 86.0 °F 92.2 °F 72.0 °F 63% 30.02 in 10.0 mi South 12.7 mph - N/A   Partly Cloudy
11:53 AM 87.1 °F 93.6 °F 72.0 °F 61% 30.01 in 10.0 mi South 11.5 mph - N/A   Partly Cloudy
12:53 PM 87.1 °F 92.8 °F 71.1 °F 59% 30.00 in 10.0 mi South 11.5 mph - N/A   Scattered Clouds
1:53 PM 89.1 °F 94.1 °F 70.0 °F 53% 29.98 in 10.0 mi SSW 10.4 mph - N/A   Scattered Clouds
2:53 PM 87.1 °F 92.8 °F 71.1 °F 59% 29.96 in 10.0 mi ESE 9.2 mph - N/A   Scattered Clouds
3:53 PM 82.0 °F 86.3 °F 71.1 °F 69% 29.95 in 10.0 mi SSE 13.8 mph - N/A Thunderstorm Thunderstorm
4:25 PM 77.0 °F - 69.8 °F 78% 29.94 in 10.0 mi SE 13.8 mph - N/A Thunderstorm Thunderstorm
4:53 PM 79.0 °F - 68.0 °F 69% 29.95 in 10.0 mi SE 8.1 mph - N/A Thunderstorm Thunderstorm
5:02 PM 78.8 °F - 68.0 °F 69% 29.97 in 10.0 mi South 4.6 mph - N/A Thunderstorm Thunderstorm
5:32 PM 73.4 °F - 69.8 °F 88% 30.00 in 8.0 mi NW 12.7 mph - 0.01 in Rain , Thunderstorm Thunderstorms and Rain
5:53 PM 73.0 °F - 70.0 °F 90% 30.00 in 10.0 mi NNW 5.8 mph - 0.02 in Rain , Thunderstorm Light Thunderstorms and Rain
6:53 PM 73.0 °F - 72.0 °F 96% 29.98 in 9.0 mi Calm Calm - 0.04 in Rain Light Rain
7:53 PM 73.9 °F - 72.0 °F 93% 30.00 in 10.0 mi West 4.6 mph - 0.01 in   Scattered Clouds
8:53 PM 73.9 °F - 71.1 °F 91% 30.01 in 10.0 mi Calm Calm - N/A   Clear
9:53 PM 73.9 °F - 72.0 °F 93% 30.02 in 10.0 mi WSW 3.5 mph - N/A   Clear
10:53 PM 73.9 °F - 72.0 °F 93% 30.01 in 10.0 mi SSW 3.5 mph - N/A   Clear
11:53 PM 73.9 °F - 72.0 °F 93% 30.00 in 10.0 mi SW 3.5 mph - N/A   Clear